Laramie, WY

10:31 AM MDT on August 17, 2017 (GMT -0600)
Laramie Regional

Weather History for KLAR - August, 2014

Change the Weather History Date:

Wednesday, August 20, 2014

  Actual Average Record
Temperature  
Mean Temperature 63 °F 62 °F  
Max Temperature 75 °F 77 °F 87 °F (2013)
Min Temperature 51 °F 46 °F 31 °F (1964)
Degree Days  
Heating Degree Days 2 4  
Month to date heating degree days 50 50  
Since 1 June heating degree days 347 360  
Since 1 July heating degree days 105 119  
Cooling Degree Days 0 0  
Month to date cooling degree days 2 17  
Year to date cooling degree days 67 64  
Since 1 June cooling degree days 67 64  
Growing Degree Days 14 (Base 50)    
Moisture  
Dew Point 47 °F    
Average Humidity 64    
Maximum Humidity 93    
Minimum Humidity 35    
Precipitation  
Precipitation 0.04 in 0.04 in 0.38 in (1961)
Month to date precipitation 0.67 0.85  
Year to date precipitation 9.83 7.77  
Sea Level Pressure  
Sea Level Pressure 29.77 in    
Wind  
Wind Speed 13 mph (WSW)    
Max Wind Speed 29 mph    
Max Gust Speed 36 mph    
Visibility 10 miles    
Events Rain    
T = Trace of Precipitation, MM = Missing Value Source: NWS Daily Summary

Daily Weather History Graph

Daily Weather History Graph

Search for Another Location

Airport or City:

Trip Planner

Search our weather history database for the weather conditions in past years. The results will help you decide how hot, cold, wet, or windy it might be!

Date:

Astronomy

Aug. 20, 2014 Rise Set
Actual Time 6:16 AM MDT 7:54 PM MDT
Civil Twilight 5:47 AM MDT 8:23 PM MDT
Nautical Twilight 5:12 AM MDT 8:58 PM MDT
Astronomical Twilight 4:34 AM MDT 9:36 PM MDT
Moon 1:57 AM MDT (8/20) 4:42 PM MDT (8/20)
Length of Visible Light 14h 35m
Length of Day
13h 37m
Waning Crescent, 20% of the Moon is Illuminated
Aug 20
Waning Crescent
Aug 25
New
Sep 2
First Quarter
Sep 8
Full
Sep 15
Last Quarter

Hourly Weather History & Observations

Time (MDT) Temp. Dew Point Humidity Pressure Visibility Wind Dir Wind Speed Gust Speed Precip Events Conditions
12:53 AM 55.0 °F 52.0 °F 89% 29.72 in 10.0 mi SW 11.5 mph - 0.00 in Rain Light Rain
1:53 AM 55.9 °F 51.1 °F 84% 29.71 in 10.0 mi SW 6.9 mph - 0.00 in   Overcast
2:53 AM 55.0 °F 51.1 °F 86% 29.72 in 10.0 mi SSW 5.8 mph - 0.01 in Rain Light Rain
3:53 AM 54.0 °F 52.0 °F 93% 29.73 in 10.0 mi SE 5.8 mph - 0.03 in Rain Light Rain
4:53 AM 54.0 °F 51.1 °F 90% 29.73 in 10.0 mi SE 4.6 mph - 0.00 in   Overcast
5:53 AM 54.0 °F 48.0 °F 80% 29.73 in 10.0 mi South 10.4 mph - N/A   Partly Cloudy
6:53 AM 54.0 °F 48.9 °F 83% 29.75 in 10.0 mi South 3.5 mph - N/A   Clear
7:53 AM 59.0 °F 48.9 °F 69% 29.74 in 10.0 mi SW 13.8 mph - N/A   Clear
8:53 AM 63.0 °F 50.0 °F 63% 29.75 in 10.0 mi WSW 16.1 mph 23.0 mph N/A   Clear
9:53 AM 66.0 °F 48.0 °F 52% 29.77 in 10.0 mi WSW 21.9 mph - N/A   Partly Cloudy
10:53 AM 66.9 °F 48.9 °F 52% 29.78 in 10.0 mi West 20.7 mph - N/A   Scattered Clouds
11:53 AM 68.0 °F 46.9 °F 47% 29.78 in 10.0 mi West 16.1 mph 24.2 mph N/A   Mostly Cloudy
12:53 PM 73.0 °F 45.0 °F 37% 29.75 in 10.0 mi WSW 19.6 mph 27.6 mph N/A   Clear
1:53 PM 73.0 °F 45.0 °F 37% 29.75 in 10.0 mi West 17.3 mph - N/A   Partly Cloudy
2:53 PM 73.0 °F 44.1 °F 35% 29.76 in 10.0 mi West 23.0 mph 28.8 mph N/A   Scattered Clouds
3:53 PM 66.0 °F 42.1 °F 42% 29.81 in 10.0 mi West 25.3 mph 35.7 mph N/A   Overcast
4:53 PM 63.0 °F 50.0 °F 63% 29.82 in 10.0 mi WNW 11.5 mph - 0.00 in Rain Light Rain
5:53 PM 69.1 °F 44.1 °F 40% 29.78 in 10.0 mi WSW 12.7 mph - 0.00 in   Clear
6:53 PM 66.0 °F 44.1 °F 45% 29.81 in 10.0 mi West 16.1 mph - N/A   Clear
7:53 PM 63.0 °F 45.0 °F 52% 29.81 in 10.0 mi West 9.2 mph - N/A   Clear
8:53 PM 60.1 °F 46.0 °F 60% 29.82 in 10.0 mi SW 6.9 mph - N/A   Clear
9:53 PM 55.0 °F 45.0 °F 69% 29.85 in 10.0 mi WSW 6.9 mph - N/A   Clear
10:53 PM 55.0 °F 44.1 °F 67% 29.85 in 10.0 mi SW 11.5 mph - N/A   Clear
11:53 PM 55.9 °F 42.1 °F 60% 29.83 in 10.0 mi SW 10.4 mph - N/A   Clear